Tracking 18785 objects as of 27-July-2017
HD Live streaming from Space Station
objects crossing your sky now
MAYAK may become the brightest orbital object in the night sky!
Where is MAYAK now?
How to spot MAYAK

METEOSAT 5 AKM

Track METEOSAT 5 AKM now!


NORAD ID: 21904
Int'l Code: 1991-015E
Perigee: 35,157.2 km
Apogee: 36,493.7 km
Inclination: 14.5 °
Period: 1,437.7 minutes
Semi major axis: 42196 km
RCS: 0.9471 m2 (medium)
Launch date: March 2, 1991
Source: European Space Agency (ESA)
Launch site: FRENCH GUIANA (FRGUI)

Note: This is a ROCKET BODY
Your satellite tracking list
Your tracking list is empty





NASA's NSSDC Master Catalog

Two Line Element Set (TLE):
1 21904U 91015E   17196.29285545 -.00000303 +00000-0 +00000-0 0  9993
2 21904 014.4703 004.9496 0158368 149.4860 211.2968 01.00158915083721
Source of the keplerian elements: AFSPC